Meath Environmental Platform

Observations for Trim Market St

Time AQI Temp °C Hum % Pres Pa CO μg/m³ H₂S μg/m³ NO μg/m³ NO₂ μg/m³ O₃ μg/m³ SO₂ μg/m³ PM1 μg/m³ PM2.5 μg/m³ PM10 μg/m³
Tuesday 25 August 2026
13:15 2 30.1 33 66,054 0 0 0.98 17.22 126.74 0 0.71 5.33 5.83
13:14 2 30.1 33 66,054 0 0 1.04 20.12 104.1 0 0.71 4.26 4.69
13:13 2 30.1 33 66,054 0 0 1 20.61 121.01 0 1.43 4.8 5.28
13:12 2 30.1 33 66,052 0 0 0.97 21.87 101.07 0 0.71 4.27 4.7
13:04 2 30.6 32 66,088 0 0 0.98 14.5 105.42 0 1.43 4.86 4.96
13:02 2 30.7 31 66,117 0 0 0.99 16.63 95.28 0 0.71 4.33 4.77
13:01 2 30.8 31 66,104 0 0 1.04 15.95 110.41 0 0 3.26 3.58
13:00 2 30.9 31 66,115 0 0 1.07 13.4 114.44 0 0.71 4.35 4.79
12:54 2 31.6 30 66,208 0 0 1.22 10.13 85.26 0 2.14 5.47 6.01
12:53 2 31.8 30 66,246 0 0 1.2 17.2 82.06 0 0 3.31 3.64
12:52 2 32 30 66,262 0 0 1.17 13.41 87.95 0 1.43 4.94 5.43
12:51 2 32.2 30 66,280 0 0 1.2 14.67 80.76 0 1.43 4.94 5.43
12:49 2 32.5 30 66,292 0 0 1.18 14.41 87.61 0 0.71 4.41 4.85
12:48 2 32.7 30 66,284 0 0 1.18 16.83 81.15 0 0.71 3.87 4.25
12:47 2 32.9 30 66,270 0 0 1.2 11.8 82.34 0 0 3.32 3.65
12:46 2 33 30 66,276 0 0 1.21 16.03 78.74 0 0.71 3.85 4.24
12:45 2 33 30 66,284 0 0 1.27 15.75 84.43 0 2.14 5.47 6.02
12:43 2 33 31 66,299 0 0 1.3 13.72 79.17 0 1.43 5.45 6.66
12:39 2 32.7 31 66,272 0.01 0 1.21 17.27 81.13 0 0.71 3.8 4.18
12:38 2 32.7 32 66,246 0 0 1.22 20.55 75.49 0 0.71 3.79 4.17